Regional Weather Roundup
Issued by NWS

Home | Current Version | Previous Version | Graphics & Text | Print | Product List | Glossary On
Versions: 1 2 3 4 5 6 7 8 9 10 11 12 13 14 15 16 17 18 19 20 21 22 23 24 25 26 27 28 29 30 31 32 33 34 35 36 37 38 39 40 41 42 43 44 45 46 47 48 49 50
000
ASUS43 KMKX 260100
RWRWI

WISCONSIN REGIONAL WEATHER ROUNDUP
NATIONAL WEATHER SERVICE MILWAUKEE/SULLIVAN WI
800 PM CDT SAT OCT 25 2014

NOTE: "FAIR" INDICATES FEW OR NO CLOUDS BELOW 12,000 FEET WITH NO
SIGNIFICANT WEATHER AND/OR OBSTRUCTIONS TO VISIBILITY.

WIZ001-002-006>008-014>016-023>028-260200-
NORTHWEST WISCONSIN

CITY           SKY/WX    TMP DP  RH WIND       PRES   REMARKS
SUPERIOR ARPT  CLEAR     53  26  35 W10G20    29.98R
ASHLAND        CLEAR     49  27  42 W10G16    29.95R
HAYWARD        CLEAR     51  23  33 VRB3      29.98R
SIREN          CLEAR     49  23  35 W6        30.01S
CUMBERLAND     CLEAR     50  23  34 NW9       30.00R
RICE LAKE      CLEAR     50  23  34 W7        30.01R
CHETEK         CLEAR     53  24  32 W8        29.99R
LADYSMITH      CLEAR     52  21  30 NW12      29.99R
EAU CLAIRE     NOT AVBL
MENOMONIE      CLEAR     53  25  33 W7        30.01R
NEW RICHMOND   CLEAR     51  25  37 W9        30.03R
OSCEOLA        CLEAR     52  27  37 W6        30.05S
$$

WIZ003>005-009-010-017-018-260200-
NORTH CENTRAL WISCONSIN

CITY           SKY/WX    TMP DP  RH WIND       PRES   REMARKS
MANITOWISH WTR CLEAR     49  25  38 NW12      29.91R
ARBOR VITAE    CLEAR     52  22  31 NW13      29.91R
WOODRUFF       CLEAR     52  22  31 NW13      29.91R
RHINELANDER    CLEAR     51  21  30 NW16G25   29.91R
EAGLE RIVER    CLEAR     50  20  30 NW14G22   29.88S
LAND O LAKES   CLEAR     51  23  33 NW10G17   29.90R
PHILLIPS       CLEAR     50  22  33 NW7       29.94R
TOMAHAWK       CLEAR     49  20  32 W7        29.93R
MEDFORD        CLEAR     48  28  44 W7        29.95R
MERRILL        CLEAR     52  23  31 NW9G16    29.92R
$$

WIZ029-030-035-036-043>047-260200-
CENTRAL WISCONSIN

CITY           SKY/WX    TMP DP  RH WIND       PRES   REMARKS
WAUSAU         CLEAR     50  28  42 W10       29.92R
MOSINEE        CLEAR     52  27  37 W12       29.93R
MARSHFIELD     CLEAR     50  28  42 W8        29.95R
STEVENS POINT  CLEAR     52  28  39 W6        29.94R
WAUPACA        CLEAR     55  28  34 W7        29.92R
WAUTOMA        NOT AVBL
WISC RAPIDS    CLEAR     53  27  36 W9        29.96R
CAMP DOUGLAS   NOT AVBL
$$

WIZ011>013-019>022-031-037>040-048>050-260200-
NORTHEAST WISCONSIN

CITY           SKY/WX    TMP DP  RH WIND       PRES   REMARKS
ANTIGO         CLEAR     50  24  36 NW12G17   29.90R
SHAWANO        CLEAR     55  27  33 W5        29.89R
OCONTO         CLEAR     54  27  35 NW5       29.86R
STURGEON BAY   CLEAR     55  30  38 NW13G21   29.86R
GREEN BAY      CLEAR     53  32  44 W10       29.89R
MANITOWOC      NOT AVBL
APPLETON       CLEAR     52  28  40 W12       29.91R
CLINTONVILLE   CLEAR     52  30  43 W8        29.89R
OSHKOSH        CLEAR     54  30  40 W6        29.92R
$$

WIZ032>034-041-042-053>061-260200-
SOUTHWEST WISCONSIN

CITY           SKY/WX    TMP DP  RH WIND       PRES   REMARKS
LA CROSSE      CLEAR     55  30  38 W8        30.01R
SPARTA         CLEAR     54  25  32 W7        30.00R
VIROQUA        CLEAR     52  27  38 W8        30.00S
BOSCOBEL       CLEAR     53  28  38 SW3       30.02R
PRAIRIE DU CHI CLEAR     56  27  33 CALM      30.02R
PLATTEVILLE    CLEAR     55  29  37 W5        30.02R
$$

WIZ056-057-062-063-064-067-068-260200-
SOUTH CENTRAL WISCONSIN

CITY           SKY/WX    TMP DP  RH WIND       PRES   REMARKS
REEDSBURG      CLEAR     54  29  39 W5        29.98R
BARABOO/DELLS  CLEAR     54  24  32 W3        29.97S
LONE ROCK      NOT AVBL
MINERAL POINT  CLEAR     55  25  30 NW9       30.00R
MADISON        CLEAR     56  27  32 W6        29.98R
MIDDLETON      CLEAR     54  26  33 W7        29.98R
WATERTOWN      CLEAR     54  31  41 W7        29.94R
MONROE         CLEAR     55  28  35 W12       29.99R
JANESVILLE     CLEAR     48  32  53 W7        29.97R
$$

WIZ051-052-058>065-066-070>072-260200-
SOUTHEAST WISCONSIN

CITY           SKY/WX    TMP DP  RH WIND       PRES   REMARKS
MILWAUKEE      CLEAR     61  24  24 NW12G23   29.93R
WAUKESHA       NOT AVBL
MILWAUKEE/TIMM CLEAR     57  25  28 W10       29.93R
RACINE         CLEAR     59  27  29 W9        29.95R
BURLINGTON     CLEAR     53  27  35 W9        29.95R
KENOSHA        CLEAR     55  30  38 W8        29.94R
FOND DU LAC    CLEAR     54  28  36 W8        29.93R
SHEBOYGAN      CLEAR     55  29  36 W12       29.90R
WEST BEND      CLEAR     55  23  28 W14G21    29.92R
JUNEAU         CLEAR     54  28  36 W6        29.95R
$$

LSZ147-162-260200-
LAKE SUPERIOR

STATION/POSITION TIME  TEMP    WIND        PRES    WAVE
                       AIR SEA DIR/SP/G            HT/PER
                 (UTC) (F)     (DEG/KT/KT) (MB)    (FT/S)
W MID LAKE BUOY  2350   50 46  270/ 16/ 19 1010.6R   4/ 6
DEVILS ISLAND    0000   53     280/ 20/ 24 1012.8R
PORT WING        0000   54     270/ 14/ 22 1014.2R
SAXON HARBOR     0000   56     250/  4/ 13 1013.2R
$$

LMZ867-665-643>646-260200-
LAKE MICHIGAN

STATION/POSITION TIME  TEMP    WIND        PRES    WAVE
                       AIR SEA DIR/SP/G            HT/PER
                 (UTC) (F)     (DEG/KT/KT) (MB)    (FT/S)
CHAMBERS ISLAND  0000   58     310/  8/ 15 1010.2R
N MID LAKE BUOY  2350   56 51  310/ 19/ 21 1008.3R   3/ 4
NORTHPORT PIER   0000   56     310/ 16/ 20 1009.5R
SISTER BAY       0013          340/ 21/ 26   N/A
KEWAUNEE LAKESHO 0000   56     290/  4/  8 1009.7R
SHEBOYGAN LAKESH 0000   60 51  290/ 14/ 18 1012.1R
PORT WASHINGTON  0000   61     280/ 11/ 16 1012.9
ATWATER BUOY     0000   59     280/  8/ 14 1013.8R
MILWAUKEE LAKESH 0000   63     290/ 10/ 15   N/A
S MID LAKE BUOY  2350   58 54  290/ 16/ 17 1011.8R   2/ 3
KENOSHA   LAKESH 0000   63     290/ 11/ 17 1012.5R
$$

TC  - TEMPERATURE IN CELSIUS
VSB - VISIBILITY IN STATUTE MILES
WCI - WIND CHILL INDEX
HX  - HEAT INDEX




USA.gov is the U.S. government's official web portal to all federal, state and local government web resources and services.